Location: Hilton Head Island
(32.2163°N, 80.7526°W)
Time: 14:46:24
(UTC-04:00)

Vanguard 2 Rocket - Pass Details

Date: 21 February 2026
Orbit: 553 x 3286 km, 32.9° (Epoch: 10 March)

Event Time Altitude Azimuth Distance (km) Brightness Sun altitude
Rises 13:44:43 0° 265° (W) 7,260 11.8 44.4°
Reaches altitude 10° 13:49:43 10° 266° (W) 6,198 11.6 44.0°
Maximum altitude 14:09:14 87° 357° (N) 2,588 9.9 42.0°
Drops below altitude 10° 14:21:28 10° 88° (E) 4,134 10.1 40.6°
Sets 14:24:06 0° 89° (E) 4,830 10.3 40.3°
